Location: Lincolnton
(35.4660°N, 81.2500°W)
Time: 01:54:50
(UTC-04:00)

HST - Visible Passes

Search period start: 23 October 2014 00:00
Search period end: 02 November 2014 00:00
Orbit: 546 x 550 km, 28.5° (Epoch: 22 October)

Date Brightness Start Highest point End Pass type
(mag) Time Alt. Az. Time Alt. Az. Time Alt. Az.
24 Oct 3.4 20:56:40 10° SW 20:57:30 14° SSW 20:57:30 14° SSW visible
25 Oct 3.1 19:10:14 10° S 19:11:48 12° SSE 19:13:23 10° SE visible
25 Oct 3.0 20:49:08 10° SW 20:50:43 18° SSW 20:50:43 18° SSW visible
26 Oct 3.0 19:02:01 10° SSW 19:04:24 15° SSE 19:06:47 10° SE visible
26 Oct 2.7 20:41:40 10° SW 20:43:54 23° SSW 20:43:54 23° SSW visible
27 Oct 2.3 20:34:14 10° WSW 20:37:03 27° SSW 20:37:03 27° SSW visible
28 Oct 2.1 20:26:50 10° WSW 20:30:10 30° S 20:30:10 30° S visible
29 Oct 2.0 20:19:28 10° WSW 20:23:11 31° S 20:23:16 31° S visible
30 Oct 2.0 20:12:07 10° WSW 20:15:48 30° S 20:16:23 29° SSE visible
31 Oct 2.2 20:04:47 10° WSW 20:08:25 29° S 20:09:31 25° SSE visible
01 Nov 2.4 19:57:29 10° WSW 20:01:00 26° S 20:02:42 20° SSE visible
